Time,TemperatureF,DewpointF,PressureIn,WindDirection,WindDirectionDegrees,WindSpeedMPH,WindSpeedGustMPH,Humidity,HourlyPrecipIn,Conditions,Clouds,dailyrainin,SoftwareType,DateUTC
2013-09-06 00:00:00,58.8,47.5,30.26,SE,145,2.0,2.0,66,0.00,,,0.00,Wunderground v.1.15,2013-09-06 04:00:00,
2013-09-06 00:05:00,58.8,47.9,30.26,SE,142,2.0,2.0,67,0.00,,,0.00,Wunderground v.1.15,2013-09-06 04:05:00,
2013-09-06 00:10:00,58.7,47.4,30.26,SE,139,3.0,3.0,66,0.00,,,0.00,Wunderground v.1.15,2013-09-06 04:10:00,
2013-09-06 00:15:00,58.6,48.1,30.26,SE,137,2.0,3.0,68,0.00,,,0.00,Wunderground v.1.15,2013-09-06 04:15:00,
2013-09-06 00:20:00,58.1,47.6,30.26,SE,142,2.0,2.0,68,0.00,,,0.00,Wunderground v.1.15,2013-09-06 04:20:00,
2013-09-06 00:25:00,58.1,47.6,30.26,SE,134,2.0,2.0,68,0.00,,,0.00,Wunderground v.1.15,2013-09-06 04:25:00,
2013-09-06 00:35:00,57.9,47.8,30.26,SE,139,2.0,4.0,69,0.00,,,0.00,Wunderground v.1.15,2013-09-06 04:35:00,
2013-09-06 00:40:00,57.5,47.8,30.26,SE,134,2.0,4.0,70,0.00,,,0.00,Wunderground v.1.15,2013-09-06 04:40:00,
2013-09-06 00:50:00,57.2,48.3,30.26,SE,142,2.0,2.0,72,0.00,,,0.00,Wunderground v.1.15,2013-09-06 04:50:00,
2013-09-06 00:55:00,57.0,48.1,30.26,SE,142,2.0,4.0,72,0.00,,,0.00,Wunderground v.1.15,2013-09-06 04:55:00,
2013-09-06 01:00:00,56.8,47.9,30.26,SE,142,1.0,4.0,72,0.00,,,0.00,Wunderground v.1.15,2013-09-06 05:00:00,
2013-09-06 01:05:00,56.7,47.8,30.27,SE,142,1.0,4.0,72,0.00,,,0.00,Wunderground v.1.15,2013-09-06 05:05:00,
2013-09-06 01:10:00,56.6,47.7,30.27,SE,142,1.0,1.0,72,0.00,,,0.00,Wunderground v.1.15,2013-09-06 05:10:00,
2013-09-06 01:15:00,56.5,47.9,30.26,SE,143,1.0,4.0,73,0.00,,,0.00,Wunderground v.1.15,2013-09-06 05:15:00,
2013-09-06 01:20:00,56.6,47.7,30.26,SE,144,1.0,1.0,72,0.00,,,0.00,Wunderground v.1.15,2013-09-06 05:20:00,
2013-09-06 01:25:00,56.7,47.8,30.26,SE,143,0.0,4.0,72,0.00,,,0.00,Wunderground v.1.15,2013-09-06 05:25:00,
2013-09-06 01:35:00,57.1,47.8,30.26,SSE,156,1.0,4.0,71,0.00,,,0.00,Wunderground v.1.15,2013-09-06 05:35:00,
2013-09-06 01:40:00,57.3,47.6,30.26,SSE,166,2.0,4.0,70,0.00,,,0.00,Wunderground v.1.15,2013-09-06 05:40:00,
2013-09-06 01:50:00,57.2,47.5,30.26,SSE,155,2.0,2.0,70,0.00,,,0.00,Wunderground v.1.15,2013-09-06 05:50:00,
2013-09-06 01:55:00,57.3,47.6,30.26,SE,132,2.0,4.0,70,0.00,,,0.00,Wunderground v.1.15,2013-09-06 05:55:00,
2013-09-06 02:00:00,57.2,47.5,30.26,SSE,148,2.0,4.0,70,0.00,,,0.00,Wunderground v.1.15,2013-09-06 06:00:00,
2013-09-06 02:10:00,56.9,47.2,30.26,SSE,148,1.0,1.0,70,0.00,,,0.00,Wunderground v.1.15,2013-09-06 06:10:00,
2013-09-06 02:15:00,56.8,47.5,30.26,SSE,158,1.0,3.0,71,0.00,,,0.00,Wunderground v.1.15,2013-09-06 06:15:00,
2013-09-06 02:20:00,56.6,47.3,30.26,SSE,156,1.0,1.0,71,0.00,,,0.00,Wunderground v.1.15,2013-09-06 06:20:00,
2013-09-06 02:30:00,56.4,47.5,30.26,SE,142,1.0,4.0,72,0.00,,,0.00,Wunderground v.1.15,2013-09-06 06:30:00,
2013-09-06 02:35:00,56.2,47.7,30.26,SE,141,1.0,4.0,73,0.00,,,0.00,Wunderground v.1.15,2013-09-06 06:35:00,
2013-09-06 02:40:00,55.7,47.5,30.26,SE,141,1.0,4.0,74,0.00,,,0.00,Wunderground v.1.15,2013-09-06 06:40:00,
2013-09-06 02:50:00,55.2,47.4,30.26,SE,141,0.0,4.0,75,0.00,,,0.00,Wunderground v.1.15,2013-09-06 06:50:00,
2013-09-06 02:55:00,55.3,47.5,30.26,SE,141,0.0,4.0,75,0.00,,,0.00,Wunderground v.1.15,2013-09-06 06:55:00,
2013-09-06 03:00:00,55.3,47.5,30.26,SE,142,0.0,0.0,75,0.00,,,0.00,Wunderground v.1.15,2013-09-06 07:00:00,
2013-09-06 03:10:00,55.2,47.4,30.26,SE,142,0.0,1.0,75,0.00,,,0.00,Wunderground v.1.15,2013-09-06 07:10:00,
2013-09-06 03:20:00,55.4,47.6,30.26,SE,142,1.0,1.0,75,0.00,,,0.00,Wunderground v.1.15,2013-09-06 07:20:00,
2013-09-06 03:25:00,55.6,47.4,30.26,SE,143,1.0,1.0,74,0.00,,,0.00,Wunderground v.1.15,2013-09-06 07:25:00,
2013-09-06 03:30:00,55.7,47.5,30.27,SE,145,1.0,3.0,74,0.00,,,0.00,Wunderground v.1.15,2013-09-06 07:30:00,
2013-09-06 03:40:00,55.3,47.2,30.26,SE,142,0.0,3.0,74,0.00,,,0.00,Wunderground v.1.15,2013-09-06 07:40:00,
2013-09-06 03:45:00,55.2,47.4,30.27,SE,142,0.0,3.0,75,0.00,,,0.00,Wunderground v.1.15,2013-09-06 07:45:00,
2013-09-06 03:55:00,55.0,47.2,30.26,SE,142,1.0,3.0,75,0.00,,,0.00,Wunderground v.1.15,2013-09-06 07:55:00,
2013-09-06 04:00:00,54.7,47.3,30.26,SE,143,0.0,3.0,76,0.00,,,0.00,Wunderground v.1.15,2013-09-06 08:00:00,
2013-09-06 04:05:00,54.6,47.2,30.26,SE,141,0.0,3.0,76,0.00,,,0.00,Wunderground v.1.15,2013-09-06 08:05:00,
2013-09-06 04:15:00,54.7,47.3,30.27,East,97,1.0,3.0,76,0.00,,,0.00,Wunderground v.1.15,2013-09-06 08:15:00,
2013-09-06 04:20:00,54.7,47.3,30.27,East,97,1.0,3.0,76,0.00,,,0.00,Wunderground v.1.15,2013-09-06 08:20:00,
2013-09-06 04:30:00,54.6,47.5,30.27,East,97,2.0,3.0,77,0.00,,,0.00,Wunderground v.1.15,2013-09-06 08:30:00,
2013-09-06 04:35:00,54.6,47.5,30.27,East,97,2.0,3.0,77,0.00,,,0.00,Wunderground v.1.15,2013-09-06 08:35:00,
2013-09-06 04:40:00,54.5,47.4,30.27,East,99,2.0,3.0,77,0.00,,,0.00,Wunderground v.1.15,2013-09-06 08:40:00,
2013-09-06 04:50:00,54.2,47.5,30.28,East,99,2.0,2.0,78,0.00,,,0.00,Wunderground v.1.15,2013-09-06 08:50:00,
2013-09-06 04:55:00,54.0,47.3,30.27,East,101,1.0,3.0,78,0.00,,,0.00,Wunderground v.1.15,2013-09-06 08:55:00,
2013-09-06 05:05:00,53.7,47.3,30.27,East,101,1.0,3.0,79,0.00,,,0.00,Wunderground v.1.15,2013-09-06 09:05:00,
2013-09-06 05:10:00,53.7,47.3,30.27,East,101,1.0,3.0,79,0.00,,,0.00,Wunderground v.1.15,2013-09-06 09:10:00,
2013-09-06 05:15:00,53.6,47.2,30.27,East,101,1.0,3.0,79,0.00,,,0.00,Wunderground v.1.15,2013-09-06 09:15:00,
2013-09-06 05:25:00,53.3,47.3,30.27,South,187,1.0,3.0,80,0.00,,,0.00,Wunderground v.1.15,2013-09-06 09:25:00,
2013-09-06 05:30:00,53.3,47.3,30.27,South,188,1.0,3.0,80,0.00,,,0.00,Wunderground v.1.15,2013-09-06 09:30:00,
2013-09-06 05:40:00,53.3,47.6,30.27,SW,218,1.0,3.0,81,0.00,,,0.00,Wunderground v.1.15,2013-09-06 09:40:00,
2013-09-06 05:45:00,53.4,47.7,30.27,SSE,150,1.0,3.0,81,0.00,,,0.00,Wunderground v.1.15,2013-09-06 09:45:00,
2013-09-06 05:50:00,53.4,47.7,30.27,SSE,166,2.0,3.0,81,0.00,,,0.00,Wunderground v.1.15,2013-09-06 09:50:00,
2013-09-06 06:00:00,53.3,47.6,30.28,SSE,148,2.0,3.0,81,0.00,,,0.00,Wunderground v.1.15,2013-09-06 10:00:00,
2013-09-06 06:05:00,53.1,47.7,30.28,SE,133,1.0,3.0,82,0.00,,,0.00,Wunderground v.1.15,2013-09-06 10:05:00,
2013-09-06 06:15:00,52.7,47.7,30.28,SE,132,2.0,3.0,83,0.00,,,0.00,Wunderground v.1.15,2013-09-06 10:15:00,
2013-09-06 06:20:00,52.6,47.6,30.28,South,176,2.0,3.0,83,0.00,,,0.00,Wunderground v.1.15,2013-09-06 10:20:00,
2013-09-06 06:30:00,52.4,47.7,30.28,ESE,118,1.0,1.0,84,0.00,,,0.00,Wunderground v.1.15,2013-09-06 10:30:00,
2013-09-06 06:35:00,52.2,47.5,30.28,SE,124,1.0,3.0,84,0.00,,,0.00,Wunderground v.1.15,2013-09-06 10:35:00,
2013-09-06 06:40:00,52.2,47.8,30.28,SE,146,1.0,3.0,85,0.00,,,0.00,Wunderground v.1.15,2013-09-06 10:40:00,
2013-09-06 06:45:00,52.1,47.7,30.28,SE,145,1.0,3.0,85,0.00,,,0.00,Wunderground v.1.15,2013-09-06 10:45:00,
2013-09-06 06:50:00,52.0,47.6,30.28,SSE,147,1.0,3.0,85,0.00,,,0.00,Wunderground v.1.15,2013-09-06 10:50:00,
2013-09-06 07:00:00,51.8,47.7,30.28,SSE,162,1.0,2.0,86,0.00,,,0.00,Wunderground v.1.15,2013-09-06 11:00:00,
2013-09-06 07:10:00,51.7,47.6,30.29,SE,139,1.0,2.0,86,0.00,,,0.00,Wunderground v.1.15,2013-09-06 11:10:00,
2013-09-06 07:20:00,51.8,48.1,30.29,South,183,1.0,1.0,87,0.00,,,0.00,Wunderground v.1.15,2013-09-06 11:20:00,
2013-09-06 07:25:00,51.9,48.2,30.29,South,184,1.0,1.0,87,0.00,,,0.00,Wunderground v.1.15,2013-09-06 11:25:00,
2013-09-06 07:35:00,52.3,48.5,30.29,SSE,149,1.0,3.0,87,0.00,,,0.00,Wunderground v.1.15,2013-09-06 11:35:00,
2013-09-06 07:40:00,52.5,48.1,30.29,SW,235,1.0,3.0,85,0.00,,,0.00,Wunderground v.1.15,2013-09-06 11:40:00,
2013-09-06 07:45:00,52.7,48.3,30.29,SSE,150,1.0,3.0,85,0.00,,,0.00,Wunderground v.1.15,2013-09-06 11:45:00,
2013-09-06 07:50:00,53.0,48.6,30.29,South,186,1.0,1.0,85,0.00,,,0.00,Wunderground v.1.15,2013-09-06 11:50:00,
2013-09-06 07:55:00,53.3,48.9,30.29,South,169,1.0,2.0,85,0.00,,,0.00,Wunderground v.1.15,2013-09-06 11:55:00,
2013-09-06 08:00:00,53.6,48.9,30.29,SSW,203,2.0,4.0,84,0.00,,,0.00,Wunderground v.1.15,2013-09-06 12:00:00,
2013-09-06 08:10:00,54.5,49.4,30.29,SSE,156,2.0,3.0,83,0.00,,,0.00,Wunderground v.1.15,2013-09-06 12:10:00,
2013-09-06 08:15:00,54.9,49.8,30.29,South,188,2.0,3.0,83,0.00,,,0.00,Wunderground v.1.15,2013-09-06 12:15:00,
2013-09-06 08:20:00,55.4,50.3,30.29,NNW,344,2.0,2.0,83,0.00,,,0.00,Wunderground v.1.15,2013-09-06 12:20:00,
2013-09-06 08:25:00,55.9,50.5,30.29,South,181,2.0,3.0,82,0.00,,,0.00,Wunderground v.1.15,2013-09-06 12:25:00,
2013-09-06 08:30:00,56.4,50.6,30.29,SW,236,1.0,3.0,81,0.00,,,0.00,Wunderground v.1.15,2013-09-06 12:30:00,
2013-09-06 08:35:00,57.0,51.2,30.29,SE,127,1.0,3.0,81,0.00,,,0.00,Wunderground v.1.15,2013-09-06 12:35:00,
2013-09-06 08:40:00,57.5,51.0,30.29,SW,226,1.0,3.0,79,0.00,,,0.00,Wunderground v.1.15,2013-09-06 12:40:00,
2013-09-06 08:45:00,58.0,51.5,30.29,SW,229,1.0,4.0,79,0.00,,,0.00,Wunderground v.1.15,2013-09-06 12:45:00,
2013-09-06 08:55:00,58.6,52.1,30.28,WSW,243,2.0,3.0,79,0.00,,,0.00,Wunderground v.1.15,2013-09-06 12:55:00,
2013-09-06 09:00:00,58.9,52.1,30.28,West,262,2.0,3.0,78,0.00,,,0.00,Wunderground v.1.15,2013-09-06 13:00:00,
2013-09-06 09:05:00,59.2,51.6,30.28,WSW,257,5.0,7.0,76,0.00,,,0.00,Wunderground v.1.15,2013-09-06 13:05:00,
2013-09-06 09:15:00,59.7,51.8,30.28,WSW,239,7.0,8.0,75,0.00,,,0.00,Wunderground v.1.15,2013-09-06 13:15:00,
2013-09-06 09:20:00,59.9,52.0,30.28,SW,236,6.0,10.0,75,0.00,,,0.00,Wunderground v.1.15,2013-09-06 13:20:00,
2013-09-06 09:30:00,60.2,51.5,30.28,WSW,255,7.0,8.0,73,0.00,,,0.00,Wunderground v.1.15,2013-09-06 13:30:00,
2013-09-06 09:35:00,60.5,51.8,30.28,WSW,252,9.0,9.0,73,0.00,,,0.00,Wunderground v.1.15,2013-09-06 13:35:00,
2013-09-06 09:40:00,60.7,51.6,30.27,WSW,242,8.0,8.0,72,0.00,,,0.00,Wunderground v.1.15,2013-09-06 13:40:00,
2013-09-06 09:45:00,60.9,51.8,30.27,WSW,243,7.0,8.0,72,0.00,,,0.00,Wunderground v.1.15,2013-09-06 13:45:00,
2013-09-06 09:50:00,61.4,52.3,30.27,SW,214,7.0,7.0,72,0.00,,,0.00,Wunderground v.1.15,2013-09-06 13:50:00,
2013-09-06 10:00:00,62.1,52.6,30.27,SW,232,7.0,7.0,71,0.00,,,0.00,Wunderground v.1.15,2013-09-06 14:00:00,
2013-09-06 10:10:00,63.1,52.8,30.28,WSW,256,6.0,8.0,69,0.00,,,0.00,Wunderground v.1.15,2013-09-06 14:10:00,
2013-09-06 10:15:00,63.7,53.3,30.27,SW,231,6.0,8.0,69,0.00,,,0.00,Wunderground v.1.15,2013-09-06 14:15:00,
2013-09-06 10:20:00,64.2,52.6,30.28,West,273,4.0,4.0,66,0.00,,,0.00,Wunderground v.1.15,2013-09-06 14:20:00,
2013-09-06 10:25:00,64.3,53.1,30.27,ENE,68,4.0,4.0,67,0.00,,,0.00,Wunderground v.1.15,2013-09-06 14:25:00,
2013-09-06 10:35:00,64.9,53.3,30.27,SW,229,5.0,5.0,66,0.00,,,0.00,Wunderground v.1.15,2013-09-06 14:35:00,
2013-09-06 10:40:00,65.4,53.3,30.27,SSE,153,5.0,5.0,65,0.00,,,0.00,Wunderground v.1.15,2013-09-06 14:40:00,
2013-09-06 10:45:00,65.6,52.7,30.27,SSE,149,4.0,12.0,63,0.00,,,0.00,Wunderground v.1.15,2013-09-06 14:45:00,
2013-09-06 10:50:00,65.9,52.9,30.27,WSW,243,4.0,12.0,63,0.00,,,0.00,Wunderground v.1.15,2013-09-06 14:50:00,
2013-09-06 10:55:00,66.2,53.2,30.27,WSW,237,5.0,12.0,63,0.00,,,0.00,Wunderground v.1.15,2013-09-06 14:55:00,
2013-09-06 11:00:00,66.0,52.2,30.27,WSW,238,6.0,12.0,61,0.00,,,0.00,Wunderground v.1.15,2013-09-06 15:00:00,
2013-09-06 11:10:00,66.8,52.0,30.27,West,259,6.0,12.0,59,0.00,,,0.00,Wunderground v.1.15,2013-09-06 15:10:00,
2013-09-06 11:20:00,67.3,53.4,30.26,West,274,5.0,5.0,61,0.00,,,0.00,Wunderground v.1.15,2013-09-06 15:20:00,
2013-09-06 11:25:00,67.7,53.3,30.26,SW,217,4.0,12.0,60,0.00,,,0.00,Wunderground v.1.15,2013-09-06 15:25:00,
2013-09-06 11:30:00,67.9,53.0,30.26,SSE,149,4.0,12.0,59,0.00,,,0.00,Wunderground v.1.15,2013-09-06 15:30:00,
2013-09-06 11:35:00,68.3,52.9,30.26,SSW,208,4.0,12.0,58,0.00,,,0.00,Wunderground v.1.15,2013-09-06 15:35:00,
2013-09-06 11:45:00,68.9,53.5,30.26,WSW,250,5.0,12.0,58,0.00,,,0.00,Wunderground v.1.15,2013-09-06 15:45:00,
2013-09-06 11:50:00,68.8,53.4,30.25,SSW,201,5.0,5.0,58,0.00,,,0.00,Wunderground v.1.15,2013-09-06 15:50:00,
2013-09-06 11:55:00,69.2,53.8,30.25,WSW,246,5.0,6.0,58,0.00,,,0.00,Wunderground v.1.15,2013-09-06 15:55:00,
2013-09-06 12:00:00,69.7,53.8,30.25,South,172,5.0,5.0,57,0.00,,,0.00,Wunderground v.1.15,2013-09-06 16:00:00,
2013-09-06 12:10:00,70.5,54.5,30.25,East,89,3.0,3.0,57,0.00,,,0.00,Wunderground v.1.15,2013-09-06 16:10:00,
2013-09-06 12:15:00,70.7,53.2,30.25,SW,236,3.0,5.0,54,0.00,,,0.00,Wunderground v.1.15,2013-09-06 16:15:00,
2013-09-06 12:25:00,70.9,53.4,30.25,West,263,4.0,7.0,54,0.00,,,0.00,Wunderground v.1.15,2013-09-06 16:25:00,
2013-09-06 12:30:00,71.4,53.4,30.25,West,266,4.0,4.0,53,0.00,,,0.00,Wunderground v.1.15,2013-09-06 16:30:00,
2013-09-06 12:35:00,71.6,53.6,30.25,SW,236,3.0,5.0,53,0.00,,,0.00,Wunderground v.1.15,2013-09-06 16:35:00,
2013-09-06 12:40:00,71.8,53.2,30.25,WNW,300,3.0,3.0,52,0.00,,,0.00,Wunderground v.1.15,2013-09-06 16:40:00,
2013-09-06 12:50:00,72.8,54.1,30.24,SSE,151,3.0,3.0,52,0.00,,,0.00,Wunderground v.1.15,2013-09-06 16:50:00,
2013-09-06 12:55:00,73.2,54.0,30.24,SW,215,2.0,10.0,51,0.00,,,0.00,Wunderground v.1.15,2013-09-06 16:55:00,
2013-09-06 13:00:00,73.5,54.3,30.24,SW,229,2.0,2.0,51,0.00,,,0.00,Wunderground v.1.15,2013-09-06 17:00:00,
2013-09-06 13:05:00,74.2,54.4,30.24,SW,217,2.0,10.0,50,0.00,,,0.00,Wunderground v.1.15,2013-09-06 17:05:00,
2013-09-06 13:10:00,75.1,55.2,30.24,East,89,1.0,10.0,50,0.00,,,0.00,Wunderground v.1.15,2013-09-06 17:10:00,
2013-09-06 13:20:00,74.0,52.5,30.23,NW,309,4.0,4.0,47,0.00,,,0.00,Wunderground v.1.15,2013-09-06 17:20:00,
2013-09-06 13:30:00,74.7,53.7,30.23,South,184,2.0,10.0,48,0.00,,,0.00,Wunderground v.1.15,2013-09-06 17:30:00,
2013-09-06 13:35:00,75.2,54.2,30.23,SW,220,2.0,10.0,48,0.00,,,0.00,Wunderground v.1.15,2013-09-06 17:35:00,
2013-09-06 13:40:00,75.5,55.0,30.23,West,271,2.0,10.0,49,0.00,,,0.00,Wunderground v.1.15,2013-09-06 17:40:00,
2013-09-06 13:45:00,75.3,53.1,30.23,WSW,239,3.0,10.0,46,0.00,,,0.00,Wunderground v.1.15,2013-09-06 17:45:00,
2013-09-06 13:50:00,74.9,52.7,30.22,WSW,249,4.0,4.0,46,0.00,,,0.00,Wunderground v.1.15,2013-09-06 17:50:00,
2013-09-06 14:00:00,75.7,53.4,30.22,NW,305,3.0,6.0,46,0.00,,,0.00,Wunderground v.1.15,2013-09-06 18:00:00,
2013-09-06 14:10:00,75.5,53.9,30.22,SW,222,5.0,5.0,47,0.00,,,0.00,Wunderground v.1.15,2013-09-06 18:10:00,
2013-09-06 14:20:00,76.0,54.3,30.21,WSW,246,3.0,7.0,47,0.00,,,0.00,Wunderground v.1.15,2013-09-06 18:20:00,
2013-09-06 14:25:00,75.6,53.9,30.21,WSW,252,4.0,7.0,47,0.00,,,0.00,Wunderground v.1.15,2013-09-06 18:25:00,
2013-09-06 14:35:00,76.1,53.8,30.20,North,352,3.0,9.0,46,0.00,,,0.00,Wunderground v.1.15,2013-09-06 18:35:00,
2013-09-06 14:40:00,76.7,53.8,30.20,East,80,3.0,9.0,45,0.00,,,0.00,Wunderground v.1.15,2013-09-06 18:40:00,
2013-09-06 14:45:00,76.6,54.3,30.20,West,276,3.0,9.0,46,0.00,,,0.00,Wunderground v.1.15,2013-09-06 18:45:00,
2013-09-06 14:50:00,76.4,54.7,30.19,East,87,4.0,9.0,47,0.00,,,0.00,Wunderground v.1.15,2013-09-06 18:50:00,
2013-09-06 14:55:00,77.0,54.6,30.19,NW,305,4.0,9.0,46,0.00,,,0.00,Wunderground v.1.15,2013-09-06 18:55:00,
2013-09-06 15:05:00,76.7,53.1,30.19,West,278,4.0,9.0,44,0.00,,,0.00,Wunderground v.1.15,2013-09-06 19:05:00,
2013-09-06 15:10:00,76.9,52.7,30.19,WNW,297,5.0,5.0,43,0.00,,,0.00,Wunderground v.1.15,2013-09-06 19:10:00,
2013-09-06 15:15:00,77.3,52.4,30.19,NE,35,4.0,9.0,42,0.00,,,0.00,Wunderground v.1.15,2013-09-06 19:15:00,
2013-09-06 15:25:00,78.0,51.7,30.18,West,281,4.0,8.0,40,0.00,,,0.00,Wunderground v.1.15,2013-09-06 19:25:00,
2013-09-06 15:30:00,77.5,52.6,30.18,NE,36,5.0,9.0,42,0.00,,,0.00,Wunderground v.1.15,2013-09-06 19:30:00,
2013-09-06 15:40:00,77.9,52.3,30.18,NNW,334,4.0,4.0,41,0.00,,,0.00,Wunderground v.1.15,2013-09-06 19:40:00,
2013-09-06 15:45:00,77.8,53.5,30.18,ENE,72,5.0,5.0,43,0.00,,,0.00,Wunderground v.1.15,2013-09-06 19:45:00,
2013-09-06 15:50:00,77.9,52.3,30.17,West,271,4.0,9.0,41,0.00,,,0.00,Wunderground v.1.15,2013-09-06 19:50:00,
2013-09-06 15:55:00,77.7,53.4,30.17,WNW,283,4.0,9.0,43,0.00,,,0.00,Wunderground v.1.15,2013-09-06 19:55:00,
2013-09-06 16:00:00,78.0,54.3,30.17,NW,311,5.0,5.0,44,0.00,,,0.00,Wunderground v.1.15,2013-09-06 20:00:00,
2013-09-06 16:10:00,77.6,54.6,30.17,SW,223,4.0,4.0,45,0.00,,,0.00,Wunderground v.1.15,2013-09-06 20:10:00,
2013-09-06 16:15:00,78.1,54.4,30.16,West,270,3.0,4.0,44,0.00,,,0.00,Wunderground v.1.15,2013-09-06 20:15:00,
2013-09-06 16:25:00,77.8,54.8,30.16,West,276,6.0,6.0,45,0.00,,,0.00,Wunderground v.1.15,2013-09-06 20:25:00,
2013-09-06 16:30:00,77.8,54.8,30.16,West,259,5.0,6.0,45,0.00,,,0.00,Wunderground v.1.15,2013-09-06 20:30:00,
2013-09-06 16:35:00,78.0,55.5,30.16,WNW,288,5.0,9.0,46,0.00,,,0.00,Wunderground v.1.15,2013-09-06 20:35:00,
2013-09-06 16:40:00,78.1,55.6,30.16,NW,310,4.0,4.0,46,0.00,,,0.00,Wunderground v.1.15,2013-09-06 20:40:00,
2013-09-06 16:45:00,78.0,55.5,30.16,NW,311,4.0,6.0,46,0.00,,,0.00,Wunderground v.1.15,2013-09-06 20:45:00,
2013-09-06 16:50:00,78.0,55.5,30.16,North,358,5.0,5.0,46,0.00,,,0.00,Wunderground v.1.15,2013-09-06 20:50:00,
2013-09-06 16:55:00,78.3,54.6,30.16,WSW,245,3.0,9.0,44,0.00,,,0.00,Wunderground v.1.15,2013-09-06 20:55:00,
2013-09-06 17:00:00,77.9,54.8,30.16,SE,127,3.0,9.0,45,0.00,,,0.00,Wunderground v.1.15,2013-09-06 21:00:00,
2013-09-06 17:05:00,78.2,55.1,30.15,WSW,245,4.0,9.0,45,0.00,,,0.00,Wunderground v.1.15,2013-09-06 21:05:00,
2013-09-06 17:15:00,78.4,56.5,30.15,NE,44,4.0,9.0,47,0.00,,,0.00,Wunderground v.1.15,2013-09-06 21:15:00,
2013-09-06 17:25:00,78.2,56.9,30.15,WNW,283,5.0,9.0,48,0.00,,,0.00,Wunderground v.1.15,2013-09-06 21:25:00,
2013-09-06 17:30:00,78.0,56.1,30.14,SW,229,5.0,9.0,47,0.00,,,0.00,Wunderground v.1.15,2013-09-06 21:30:00,
2013-09-06 17:35:00,78.0,56.7,30.14,WSW,246,5.0,9.0,48,0.00,,,0.00,Wunderground v.1.15,2013-09-06 21:35:00,
2013-09-06 17:40:00,77.7,56.4,30.14,WSW,249,5.0,9.0,48,0.00,,,0.00,Wunderground v.1.15,2013-09-06 21:40:00,
2013-09-06 17:45:00,77.7,56.4,30.14,WSW,242,6.0,9.0,48,0.00,,,0.00,Wunderground v.1.15,2013-09-06 21:45:00,
2013-09-06 17:50:00,77.7,56.4,30.14,West,274,6.0,6.0,48,0.00,,,0.00,Wunderground v.1.15,2013-09-06 21:50:00,
2013-09-06 18:00:00,77.7,56.4,30.14,WSW,246,5.0,6.0,48,0.00,,,0.00,Wunderground v.1.15,2013-09-06 22:00:00,
2013-09-06 18:10:00,77.8,57.7,30.14,WNW,284,5.0,5.0,50,0.00,,,0.00,Wunderground v.1.15,2013-09-06 22:10:00,
2013-09-06 18:15:00,77.9,57.2,30.14,East,82,4.0,5.0,49,0.00,,,0.00,Wunderground v.1.15,2013-09-06 22:15:00,
2013-09-06 18:20:00,77.7,57.0,30.14,East,82,3.0,4.0,49,0.00,,,0.00,Wunderground v.1.15,2013-09-06 22:20:00,
2013-09-06 18:25:00,77.5,57.9,30.14,WSW,249,4.0,4.0,51,0.00,,,0.00,Wunderground v.1.15,2013-09-06 22:25:00,
2013-09-06 18:35:00,77.5,58.5,30.14,West,269,3.0,9.0,52,0.00,,,0.00,Wunderground v.1.15,2013-09-06 22:35:00,
2013-09-06 18:40:00,77.5,59.0,30.14,WSW,250,2.0,2.0,53,0.00,,,0.00,Wunderground v.1.15,2013-09-06 22:40:00,
2013-09-06 18:45:00,77.4,58.9,30.14,WSW,239,2.0,3.0,53,0.00,,,0.00,Wunderground v.1.15,2013-09-06 22:45:00,
2013-09-06 18:50:00,77.2,58.7,30.14,WSW,238,3.0,3.0,53,0.00,,,0.00,Wunderground v.1.15,2013-09-06 22:50:00,
2013-09-06 18:55:00,77.2,58.7,30.14,WSW,238,2.0,9.0,53,0.00,,,0.00,Wunderground v.1.15,2013-09-06 22:55:00,
2013-09-06 19:05:00,76.9,58.5,30.13,SSW,212,1.0,9.0,53,0.00,,,0.00,Wunderground v.1.15,2013-09-06 23:05:00,
2013-09-06 19:10:00,76.7,58.8,30.13,SW,215,2.0,2.0,54,0.00,,,0.00,Wunderground v.1.15,2013-09-06 23:10:00,
2013-09-06 19:20:00,76.2,58.9,30.13,SW,215,1.0,9.0,55,0.00,,,0.00,Wunderground v.1.15,2013-09-06 23:20:00,
2013-09-06 19:25:00,76.0,59.2,30.13,SW,215,1.0,9.0,56,0.00,,,0.00,Wunderground v.1.15,2013-09-06 23:25:00,
2013-09-06 19:30:00,75.5,60.2,30.13,SW,224,1.0,9.0,59,0.00,,,0.00,Wunderground v.1.15,2013-09-06 23:30:00,
2013-09-06 19:40:00,74.9,59.6,30.13,SW,224,1.0,1.0,59,0.00,,,0.00,Wunderground v.1.15,2013-09-06 23:40:00,
2013-09-06 19:45:00,74.6,59.3,30.13,SW,223,1.0,9.0,59,0.00,,,0.00,Wunderground v.1.15,2013-09-06 23:45:00,
2013-09-06 19:50:00,74.3,59.0,30.13,SW,224,1.0,1.0,59,0.00,,,0.00,Wunderground v.1.15,2013-09-06 23:50:00,
2013-09-06 19:55:00,74.0,59.2,30.12,SW,224,1.0,9.0,60,0.00,,,0.00,Wunderground v.1.15,2013-09-06 23:55:00,
2013-09-06 20:00:00,73.6,59.3,30.12,SW,224,1.0,1.0,61,0.00,,,0.00,Wunderground v.1.15,2013-09-07 00:00:00,
2013-09-06 20:10:00,72.8,59.5,30.12,SW,228,2.0,2.0,63,0.00,,,0.00,Wunderground v.1.15,2013-09-07 00:10:00,
2013-09-06 20:20:00,72.3,59.4,30.12,WSW,238,1.0,1.0,64,0.00,,,0.00,Wunderground v.1.15,2013-09-07 00:20:00,
2013-09-06 20:25:00,72.2,58.9,30.12,SW,235,1.0,1.0,63,0.00,,,0.00,Wunderground v.1.15,2013-09-07 00:25:00,
2013-09-06 20:30:00,71.9,59.1,30.12,SW,235,1.0,1.0,64,0.00,,,0.00,Wunderground v.1.15,2013-09-07 00:30:00,
2013-09-06 20:35:00,71.7,58.9,30.12,SW,235,1.0,2.0,64,0.00,,,0.00,Wunderground v.1.15,2013-09-07 00:35:00,
2013-09-06 20:40:00,71.7,58.9,30.12,WSW,242,2.0,4.0,64,0.00,,,0.00,Wunderground v.1.15,2013-09-07 00:40:00,
2013-09-06 20:45:00,71.6,58.8,30.12,SW,236,3.0,4.0,64,0.00,,,0.00,Wunderground v.1.15,2013-09-07 00:45:00,
2013-09-06 20:50:00,71.5,58.7,30.12,WSW,242,3.0,4.0,64,0.00,,,0.00,Wunderground v.1.15,2013-09-07 00:50:00,
2013-09-06 20:55:00,71.5,58.7,30.12,SW,235,2.0,4.0,64,0.00,,,0.00,Wunderground v.1.15,2013-09-07 00:55:00,
2013-09-06 21:00:00,71.3,58.5,30.13,SW,233,2.0,4.0,64,0.00,,,0.00,Wunderground v.1.15,2013-09-07 01:00:00,
2013-09-06 21:05:00,71.3,58.1,30.12,WSW,237,1.0,4.0,63,0.00,,,0.00,Wunderground v.1.15,2013-09-07 01:05:00,
2013-09-06 21:15:00,71.4,58.1,30.12,SW,233,3.0,4.0,63,0.00,,,0.00,Wunderground v.1.15,2013-09-07 01:15:00,
2013-09-06 21:20:00,71.4,57.7,30.13,WSW,246,2.0,2.0,62,0.00,,,0.00,Wunderground v.1.15,2013-09-07 01:20:00,
2013-09-06 21:25:00,71.2,58.0,30.12,SW,236,2.0,4.0,63,0.00,,,0.00,Wunderground v.1.15,2013-09-07 01:25:00,
2013-09-06 21:30:00,71.2,58.0,30.12,WSW,242,3.0,6.0,63,0.00,,,0.00,Wunderground v.1.15,2013-09-07 01:30:00,
2013-09-06 21:35:00,71.3,57.6,30.12,WSW,245,5.0,6.0,62,0.00,,,0.00,Wunderground v.1.15,2013-09-07 01:35:00,
2013-09-06 21:40:00,71.3,57.6,30.12,WSW,242,6.0,6.0,62,0.00,,,0.00,Wunderground v.1.15,2013-09-07 01:40:00,
2013-09-06 21:45:00,71.0,57.8,30.12,WSW,239,5.0,6.0,63,0.00,,,0.00,Wunderground v.1.15,2013-09-07 01:45:00,
2013-09-06 21:50:00,70.7,57.9,30.12,WSW,239,4.0,4.0,64,0.00,,,0.00,Wunderground v.1.15,2013-09-07 01:50:00,
2013-09-06 21:55:00,70.6,57.8,30.12,WSW,239,4.0,5.0,64,0.00,,,0.00,Wunderground v.1.15,2013-09-07 01:55:00,
2013-09-06 22:00:00,70.5,57.7,30.12,WSW,238,4.0,4.0,64,0.00,,,0.00,Wunderground v.1.15,2013-09-07 02:00:00,
2013-09-06 22:10:00,70.3,57.5,30.12,SW,236,3.0,3.0,64,0.00,,,0.00,Wunderground v.1.15,2013-09-07 02:10:00,
2013-09-06 22:20:00,70.4,57.2,30.11,WSW,239,5.0,5.0,63,0.00,,,0.00,Wunderground v.1.15,2013-09-07 02:20:00,
2013-09-06 22:30:00,70.0,57.3,30.11,WSW,248,5.0,5.0,64,0.00,,,0.00,Wunderground v.1.15,2013-09-07 02:30:00,
2013-09-06 22:35:00,69.9,57.2,30.11,WSW,242,6.0,6.0,64,0.00,,,0.00,Wunderground v.1.15,2013-09-07 02:35:00,
2013-09-06 22:40:00,69.7,57.0,30.11,WSW,242,5.0,6.0,64,0.00,,,0.00,Wunderground v.1.15,2013-09-07 02:40:00,
2013-09-06 22:50:00,69.5,57.2,30.11,WSW,246,6.0,6.0,65,0.00,,,0.00,Wunderground v.1.15,2013-09-07 02:50:00,
2013-09-06 22:55:00,69.5,57.2,30.11,WSW,243,6.0,7.0,65,0.00,,,0.00,Wunderground v.1.15,2013-09-07 02:55:00,
2013-09-06 23:05:00,69.4,56.7,30.11,WSW,245,7.0,7.0,64,0.00,,,0.00,Wunderground v.1.15,2013-09-07 03:05:00,
2013-09-06 23:10:00,69.4,57.1,30.11,WSW,246,7.0,7.0,65,0.00,,,0.00,Wunderground v.1.15,2013-09-07 03:10:00,
2013-09-06 23:15:00,69.2,56.9,30.10,WSW,242,8.0,8.0,65,0.00,,,0.00,Wunderground v.1.15,2013-09-07 03:15:00,
2013-09-06 23:20:00,68.8,57.0,30.10,WSW,246,8.0,8.0,66,0.00,,,0.00,Wunderground v.1.15,2013-09-07 03:20:00,
2013-09-06 23:25:00,68.6,56.8,30.10,WSW,246,8.0,8.0,66,0.00,,,0.00,Wunderground v.1.15,2013-09-07 03:25:00,
2013-09-06 23:30:00,68.5,56.7,30.10,WSW,251,8.0,8.0,66,0.00,,,0.00,Wunderground v.1.15,2013-09-07 03:30:00,
2013-09-06 23:40:00,68.4,56.6,30.10,WSW,246,8.0,8.0,66,0.00,,,0.00,Wunderground v.1.15,2013-09-07 03:40:00,
2013-09-06 23:45:00,68.3,56.5,30.09,WSW,248,8.0,8.0,66,0.00,,,0.00,Wunderground v.1.15,2013-09-07 03:45:00,
2013-09-06 23:55:00,68.3,56.5,30.09,WSW,253,8.0,8.0,66,0.00,,,0.00,Wunderground v.1.15,2013-09-07 03:55:00,